Location: Kimberly
(42.5380°N, 114.3640°W)
Time: 05:17:11
(UTC-06:00)

X-37B - Visible Passes

Search period start: 20 September 2020 00:00
Search period end: 30 September 2020 00:00
Orbit: 386 x 387 km, 45.0° (Epoch: 18 September)

Date Brightness Start Highest point End Pass type
(mag) Time Alt. Az. Time Alt. Az. Time Alt. Az.
20 Sep 3.7 04:46:57 16° ENE 04:46:57 16° ENE 04:47:42 10° ENE visible
20 Sep 0.6 06:19:14 19° WNW 06:21:24 77° NNE 06:24:34 10° ESE visible
21 Sep 1.7 05:23:28 45° ENE 05:23:28 45° ENE 05:25:54 10° E visible
21 Sep 1.1 06:56:19 10° W 06:59:23 44° SSW 07:02:25 10° SE visible
22 Sep 0.5 06:00:04 46° W 06:00:51 73° SSW 06:04:00 10° ESE visible
23 Sep 3.3 05:04:30 18° E 05:04:30 18° E 05:05:27 10° ESE visible
23 Sep 1.8 06:36:48 15° W 06:38:42 26° SSW 06:41:25 10° SSE visible
24 Sep 2.0 05:41:23 30° SSE 05:41:23 30° SSE 05:43:17 10° SE visible
25 Sep 2.6 06:18:25 15° SSW 06:18:25 15° SSW 06:19:54 10° S visible
